Regional Weather Roundup
Issued by NWS Little Rock, AR

Home | Current Version | Previous Version | Graphics & Text | Print | Product List | Glossary On
Versions: 1 2 3 4 5 6 7 8 9 10 11 12 13 14 15 16 17 18 19 20 21 22 23 24 25 26 27 28 29 30 31
000
ASUS44 KLZK 260205
RWRLZK

WEATHER ROUNDUP FOR ARKANSAS
NATIONAL WEATHER SERVICE LITTLE ROCK AR
900 PM CDT SUN JUN 25 2017

NOTE: "FAIR" INDICATES FEW OR NO CLOUDS BELOW 12,000 FEET WITH NO
SIGNIFICANT WEATHER AND/OR OBSTRUCTIONS TO VISIBILITY.

ARZ001-003-010-029-260300-
NORTHWEST ARKANSAS

CITY           SKY/WX    TMP DP  RH WIND       PRES   REMARKS
FAYETTEVILLE   PTCLDY    70  61  73 S5        30.20F
FORT SMITH     CLEAR     79  58  48 SE3       30.16R
HARRISON       CLEAR     70  58  65 N5        30.22S
BENTONVILLE    CLEAR     75  55  50 CALM      30.22F
ROGERS         CLEAR     74  59  59 E5        30.22F
SILOAM SPGS    CLOUDY    73  57  56 NE5       30.21
HIGHFILL       CLEAR     74  58  57 NE5       30.21F
SPRINGDALE     PTCLDY    75  59  57 NE6       30.23S
$$

ARZ004-005-016-260300-
NORTH CENTRAL ARKANSAS

CITY           SKY/WX    TMP DP  RH WIND       PRES   REMARKS
BATESVILLE     CLEAR     72  61  68 S3        30.18S
FLIPPIN        CLEAR     75  55  50 NW6       30.18R
MTN HOME       CLEAR     69  58  67 CALM      30.19S
$$

ARZ040-041-260300-
WEST CENTRAL ARKANSAS

CITY           SKY/WX    TMP DP  RH WIND       PRES   REMARKS
MENA           CLEAR     73  63  68 CALM      30.19R
MOUNT IDA      CLEAR     72  63  73 CALM      30.17R
$$

ARZ009-017-025-026-028-260300-
NORTHEAST ARKANSAS

CITY           SKY/WX    TMP DP  RH WIND       PRES   REMARKS
CORNING        FAIR      75  63  64 S7        30.16S
JONESBORO      CLEAR     70  63  78 CALM      30.16S
WALNUT RIDGE   CLEAR     75  55  50 S5        30.16S
BLYTHEVILLE    CLEAR     77  58  51 CALM      30.17S
$$

ARZ022-023-033-042-044-260300-
CENTRAL ARKANSAS

CITY           SKY/WX    TMP DP  RH WIND       PRES   REMARKS
LITTLE ROCK    PTCLDY    72  62  71 SE3       30.17S
N LITTLE ROCK    N/A     71  61  70 CALM      30.17S
CONWAY           N/A     73  63  68 CALM      30.15S
SEARCY         CLEAR     70  64  81 CALM      30.19S
HOT SPRINGS    CLEAR     75  62  64 E5        30.17S
RUSSELLVILLE   CLEAR     70  64  81 CALM      30.17R
CLINTON        FAIR      70  63  78 CALM      30.18S
$$

ARZ036-260300-
EAST ARKANSAS

CITY           SKY/WX    TMP DP  RH WIND       PRES   REMARKS
WEST MEMPHIS   CLEAR     70  66  87 CALM      30.17S
$$

ARZ050-053-066-070-073-260300-
SOUTHWEST ARKANSAS

CITY           SKY/WX    TMP DP  RH WIND       PRES   REMARKS
CAMDEN         CLEAR     72  64  78 CALM      30.16R
TEXARKANA      CLEAR     75  62  64 NE3       30.14F
EL DORADO      CLEAR     71  66  84 CALM      30.17R
DE QUEEN       CLEAR     77  62  59 SE6       30.13S
$$

ARZ056-057-069-260300-
SOUTHEAST ARKANSAS

CITY           SKY/WX    TMP DP  RH WIND       PRES   REMARKS
PINE BLUFF     CLEAR     73  65  75 CALM      30.17S
STUTTGART      PTCLDY    79  54  41 E5        30.18F
MONTICELLO     CLEAR     73  66  78 CALM      30.17S

$$






USA.gov is the U.S. government's official web portal to all federal, state and local government web resources and services.